Regional Weather Roundup
Issued by NWS Midland/Odessa, TX

Home | Current Version | Previous Version | Text Only | Print | Product List | Glossary On
Versions: 1 2 3 4 5 6 7 8 9 10 11 12 13 14 15 16 17 18 19 20 21 22 23 24 25 26 27 28 29 30 31 32 33 34 35 36 37 38 39 40 41 42 43 44 45 46 47 48 49 50
000
ASUS44 KMAF 222310
RWRMAF
MIDLAND AREA WEATHER ROUNDUP
NATIONAL WEATHER SERVICE MIDLAND TX
500 PM CST SUN JAN 22 2017

...IN SOUTHWEST TEXAS AND SOUTHEAST NEW MEXICO...

CITY           SKY/WX    TMP DP  RH WIND       PRES   REMARKS
ALPINE         SUNNY     56  17  21 SW17      30.13S
ANDREWS        FAIR      59  17  19 NW15      29.99S
ARTESIA        SUNNY     61  16  17 SW13      30.01R
BIG SPRING     SUNNY     61  25  25 W14G21    29.99R
CARLSBAD       SUNNY     60  15  17 W20       30.01R
DRYDEN           N/A     69  10  10 NW12      29.98R
FORT STOCKTON  SUNNY     61  13  15 W17G24    30.02S
GUAD PASS      SUNNY     49  17  28 W24G33    30.09R
HOBBS          SUNNY     57  12  17 W12       30.00S
MARFA          SUNNY     52  21  29 W25       30.12S
MIDLAND AIRPK  SUNNY     63  20  19 NW13G21   29.99R
MIDLAND INTL   SUNNY     62  18  18 NW18G24   29.98S
ODESSA         SUNNY     62  15  16 NW18G25   29.99S
PECOS          SUNNY     63  17  16 W16G22    30.02R
PRESIDIO       FAIR      63  19  18 W14G21    30.11R
SEMINOLE       SUNNY     59  17  19 NW12G18   29.99S
SNYDER         SUNNY     60  29  30 NW15      29.96R
WINK           SUNNY     63  11  13 NW15      29.98F
$$
...OTHER STATIONS IN TEXAS...

CITY           SKY/WX    TMP DP  RH WIND       PRES   REMARKS
ABILENE        SUNNY     61  28  28 NW16      29.92S
AMARILLO       SUNNY     54  26  34 NW9       29.95S
AUSTIN         MOSUNNY   69  36  29 NW15G31   29.83R
BROWNSVILLE    SUNNY     79  20  11 NW23G32   29.85R
CORPUS CHRISTI SUNNY     77  28  16 NW28G37   29.82R
DALLAS FTW     CLEAR     64  36  35 NW24G36   29.77R
DEL RIO        SUNNY     71  20  14 NW16G29   29.93S
EL PASO        MOSUNNY   54  25  32 W9        30.10F
HOUSTON INT    PTCLDY    64  45  49 NW28G43   29.73R
LUBBOCK        MOSUNNY   59  24  26 NW15      29.94R
SAN ANGELO     SUNNY     64  26  23 NW14      29.95R
SAN ANTONIO    SUNNY     69  36  29 NW20G26   29.88R
WACO           CLEAR     65  37  35 NW24G32   29.80R
WICHITA FALLS  NOT AVBL
$$
...OTHER LOCATIONS IN NEW MEXICO...

CITY           SKY/WX    TMP DP  RH WIND       PRES   REMARKS
ALAMAGORDO     SUNNY     50  19  29 N6        30.12F
ALBUQUERQUE    CLOUDY    43  20  39 NW5       30.10S
CANNON AFB     SUNNY     55  15  20 W8        29.95S
CLOVIS         SUNNY     55  16  21 NW6       29.96R
HOLLOMAN AFB   SUNNY     50  23  34 NW3       30.14F
ROSWELL        SUNNY     59  12  15 N10       30.00R
RUIDOSO        SUNNY     41  10  28 NW20G25   30.08R WCI  32
SANTA FE       CLOUDY    38  19  46 N13       30.06R WCI  30
TRUTH OR CONSE MOSUNNY   50  19  29 S13       30.08S
TUCUMCARI      SUNNY     57   8  14 W5        29.93R
$$



USA.gov is the U.S. government's official web portal to all federal, state and local government web resources and services.